Regional Weather Roundup
Issued by NWS Northern Indiana

Home | Current Version | Previous Version | Graphics & Text | Print | Product List | Glossary On
Versions: 1 2 3 4 5 6 7 8 9 10 11 12 13 14 15 16 17 18 19 20 21 22 23 24 25 26 27 28 29 30 31 32 33 34 35 36 37 38 39 40 41 42 43 44 45 46 47 48 49 50
839
ASUS43 KIWX 240100
RWRIWX

KIWX WEATHER ROUNDUP
NATIONAL WEATHER SERVICE NORTHERN INDIANA
900 PM EDT MON MAY 23 2016

NOTE: "FAIR" INDICATES FEW OR NO CLOUDS BELOW 12,000 FEET WITH NO
SIGNIFICANT WEATHER AND/OR OBSTRUCTIONS TO VISIBILITY.

* THESE STATIONS ARE NOT UNDER NWS QUALITY CONTROL. THEY ALSO MAY NOT
  REPORT WEATHER SUCH AS PRECIPITATION OR FOG.

INZ001>027-240200-
NORTHERN INDIANA

CITY           SKY/WX    TMP DP  RH WIND       PRES   REMARKS
GARY*          PTCLDY    68  61  77 SE6       29.93S
SOUTH BEND     CLEAR     71  35  26 S6        29.97S
ELKHART*       CLEAR     72  41  33 S3        29.98R
GOSHEN         CLEAR     68  31  25 S5        29.98R
ANGOLA*        CLEAR     64  45  48 CALM      30.00R
FORT WAYNE     CLEAR     70  37  29 S3        29.99S

$$
INZ028>050-240200-
CENTRAL INDIANA

CITY           SKY/WX    TMP DP  RH WIND       PRES   REMARKS
LAFAYETTE      CLEAR     71  39  31 CALM      29.96S
KOKOMO*        CLEAR     70  39  32 S6        29.99R
MUNCIE*        CLEAR     74  38  27 SE3       30.00R
INDIANAPOLIS   PTCLDY    72  38  29 S6        29.99R

$$
MIZ043>046-050>051-056>058-064>065-071>073-077>080-240200-
SOUTHWEST LOWER MICHIGAN

CITY           SKY/WX    TMP DP  RH WIND       PRES   REMARKS
BATTLE CREEK   CLEAR     67  35  30 S7        29.99R
BENTON HARBOR  CLEAR     65  45  48 CALM      29.95S
COLDWATER*     CLEAR     65  34  30 CALM      29.99R
HILLSDALE*     CLEAR     68  26  20 CALM      30.01R
HOLLAND        CLEAR     66  43  43 CALM      29.96F
GRAND RAPIDS   PTCLDY    73  44  35 W9        29.97R
KALAMAZOO      CLEAR     67  36  31 SW5       29.98R
STURGIS*       CLEAR     69  32  25 S3        29.98R
THREE RIVERS*  FAIR      69  36  30 CALM      29.98R

$$
OHZ001>008-015>018-024>025-240200-
NORTHWEST OHIO

CITY           SKY/WX    TMP DP  RH WIND       PRES   REMARKS
DEFIANCE       CLEAR     69  43  38 CALM      29.99R
FINDLAY        CLEAR     70  44  39 S5        29.99R
TOLEDO EXPRESS CLEAR     65  44  46 S3        29.99R
TOLEDO METCALF CLEAR     66  47  50 SE8       30.00R
LIMA           CLEAR     66  49  54 E3        30.00R

$$
AND FOR LAKE MICHIGAN COASTAL AND OPEN LAKE BUOY OBSERVATIONS

STATION/POSITION TEMP    WIND        PRES    VSBY  WAVE
                 AIR SEA DIR/SP/G                  HT/PER
                 (F)     (DEG/KT/KT) (MB)    (MI)  (FT/S)
CALUMET HARBOR    65      70/  5/  9 1013.0F
MICHIGAN CITY     63     360/  6/  6   N/A
BURNS HARBOR      63      80/  7/ 10 1014.2F
SAINT JOSEPH      76      CALM  /  3 1014.9S
4 MI NW BRIDGMAN  65 60   40/  6/  6   N/A           0
MICHIGAN CITY     61 59   30/  6/  6   N/A           0

$$
&&




USA.gov is the U.S. government's official web portal to all federal, state and local government web resources and services.